Regional Weather Roundup
Issued by NWS Kansas City/Pleasant Hill, MO

Home | Current Version | Previous Version | Text Only | Print | Product List | Glossary On
Versions: 1 2 3 4 5 6 7 8 9 10 11 12 13 14 15 16 17 18 19 20 21 22 23 24 25 26 27 28
000
ASUS43 KEAX 281510
RWREAX

WEATHER ROUNDUP FOR EASTERN KANSAS AND NORTHWEST MISSOURI
NATIONAL WEATHER SERVICE KANSAS CITY/PLEASANT HILL MO
1000 AM CDT SUN MAY 28 2017

KSZ040-057-103>105-MOZ028-029-037-043-281600-
...KANSAS CITY METROPOLITAN AREA...

CITY           SKY/WX    TMP DP  RH WIND       PRES   REMARKS
K.C. INTL      SUNNY     70  57  63 NW9       29.94R
K.C. DOWNTOWN  SUNNY     71  56  58 NW12G22   29.93R
LEES SUMMIT    SUNNY     69  60  73 NW9       29.94R
OLATHE - IXD   SUNNY     69  58  67 N12       29.96R
OLATHE - OJC   SUNNY     69  58  67 N12       29.95R
LAWRENCE       SUNNY     70  55  59 W14       29.96R

$$

MOZ001>008-011>017-020>025-030>033-038>040-044>046-053-054-281600-
...NORTHERN AND CENTRAL MISSOURI...

CITY           SKY/WX    TMP DP  RH WIND       PRES   REMARKS
ST. JOSEPH     SUNNY     69  57  65 W9        29.93S
MOSBY          SUNNY     70  54  56 NW8       29.92S
WARRENSBURG    SUNNY     68  57  68 NW6       29.93S
WHITEMAN AFB   SUNNY     69  64  85 NW8       29.92R
CLINTON        SUNNY     68  59  73 N3        29.94S
SEDALIA        SUNNY     69  62  78 NW8       29.94R
WARSAW         NOT AVBL
CHILLICOTHE      N/A     71  57  61 NW8       29.91S
KIRKSVILLE     SUNNY     71  55  56 W10       29.88S

$$

MOZ041-047>049-056>058-063>065-088>090-097-281600-
...EASTERN AND SOUTHERN MISSOURI...

CITY           SKY/WX    TMP DP  RH WIND       PRES   REMARKS
ST. LOUIS INTL CLOUDY    69  62  78 W10       29.84R
SPIRIT OF STL  CLOUDY    64  63  96 W12       29.85R
COLUMBIA       MOSUNNY   68  63  84 NW10      29.90R
JEFFERSON CITY CLOUDY    69  62  78 NW7       29.89R
ROLLA          FOG       62 N/A N/A W10       29.89R VSB 1/2
OSAGE BEACH    CLOUDY    64  62  93 W7        29.92R
SPRINGFIELD    CLOUDY    67  61  81 NW8       29.95R
BRANSON        CLOUDY    66  64  94 NW5       29.95R
JOPLIN         MOSUNNY   71  61  70 VRB3      29.98R
WEST PLAINS    CLOUDY    65  63  93 SW9       29.92F

$$

IAZ060-094-KSZ022-034>040-054-083-096-NEZ052-066-093-281600-
...KANSAS...SOUTHEAST NEBRASKA AND IOWA...

CITY           SKY/WX    TMP DP  RH WIND       PRES   REMARKS
TOPEKA         SUNNY     69  58  67 VRB7      29.96S
MANHATTAN      SUNNY     70  56  61 W8        29.99S
EMPORIA        SUNNY     69  56  62 NW12      30.00R
CHANUTE        SUNNY     72  56  57 N8        29.99R
WICHITA        MOSUNNY   70  54  56 NW12      30.04R
OMAHA          SUNNY     69  50  50 NW8       29.92R
LINCOLN        SUNNY     71  49  45 NW8       29.96R
FALLS CITY     SUNNY     67  55  65 NW10      29.93S
LAMONI         SUNNY     69  56  62 W10       29.89S
DES MOINES     MOSUNNY   70  53  54 W13       29.85F

$$





USA.gov is the U.S. government's official web portal to all federal, state and local government web resources and services.